Date String (YYYY-MM-DD hh:mm:ss) UTC,Instrument flags,Ambient pressure (hPa),Sample flow (lpm),Bypass flow (lpm),Sample temperature (°C),Ambient temperature (°C),ASC tube jacket temperature (°C),LED temperature (°C),Box temperature (°C),Sample RH (%),Span deviation,Mass concentration (μg/m³),Mass concentration (μg/m³),Mass concentration (μg/m³)
DateTimeUTC,F1_M11,P_M11,Q1_M11,Q2_M11,T1_M11,T2_M11,T3_M11,T4_M11,T5_M11,U1_M11,ZSPAN_M11,X0_M11,X2_M11,X1_M11
2021-09-08 14:00:00,,0833.1,4.99,0.00,30.2,29.1,00.0,39.3,31.9,14.5,0001.4,0057.46,0039.31,0036.68
2021-09-08 14:01:00,,0833.1,4.99,0.00,30.2,29.1,00.0,39.3,31.9,14.3,0001.8,0056.88,0039.25,0036.65
2021-09-08 14:02:00,,0833.1,4.99,0.00,30.2,29.1,00.0,39.3,31.9,14.1,0001.8,0056.99,0039.22,0036.66
2021-09-08 14:03:00,,0833.1,5.00,0.00,30.2,29.2,00.0,39.3,31.9,14.2,0001.7,0057.26,0039.21,0036.64
2021-09-08 14:04:00,,0833.1,5.00,0.00,30.3,29.2,00.0,39.4,31.9,14.5,0001.6,0057.61,0039.23,0036.62
2021-09-08 14:05:00,,0833.1,5.01,0.00,30.3,29.2,00.0,39.4,32.0,14.6,0001.7,0057.90,0039.35,0036.63
2021-09-08 14:06:00,,0833.1,5.00,0.00,30.3,29.2,00.0,39.4,32.0,14.6,0001.5,0058.41,0039.41,0036.66
2021-09-08 14:07:00,,0833.1,4.99,0.00,30.3,29.3,00.0,39.4,32.0,14.7,0001.2,0059.28,0039.42,0036.66
2021-09-08 14:08:00,,0833.1,5.02,0.00,30.3,29.3,00.0,39.4,32.0,14.7,0001.0,0058.83,0039.35,0036.67
2021-09-08 14:09:00,,0833.1,5.00,0.00,30.3,29.3,00.0,39.4,32.0,14.3,0000.9,0058.71,0039.37,0036.73
2021-09-08 14:10:00,,0833.1,5.01,0.00,30.4,29.4,00.0,39.4,32.1,14.1,0001.2,0058.99,0039.44,0036.77
2021-09-08 14:11:00,,0833.1,5.00,0.00,30.4,29.4,00.0,39.4,32.1,14.3,0001.1,0058.93,0039.47,0036.79
2021-09-08 14:12:00,,0833.0,5.00,0.00,30.4,29.4,00.0,39.4,32.1,13.9,0000.8,0059.72,0039.50,0036.82
2021-09-08 14:13:00,,0833.0,5.01,0.00,30.4,29.4,00.0,39.5,32.1,14.1,0000.8,0059.52,0039.54,0036.83
2021-09-08 14:14:00,,0833.0,4.99,0.00,30.4,29.4,00.0,39.5,32.1,14.3,0001.1,0059.07,0039.61,0036.86
2021-09-08 14:15:00,,0833.0,5.00,0.00,30.4,29.4,00.0,39.5,32.2,14.1,0001.0,0058.67,0039.55,0036.90
2021-09-08 14:16:00,,0833.0,5.01,0.00,30.5,29.5,00.0,39.5,32.1,14.0,0000.8,0058.07,0039.41,0036.90
2021-09-08 14:17:00,,0833.1,5.00,0.00,30.5,29.5,00.0,39.5,32.2,13.9,0000.8,0057.55,0039.28,0036.84
2021-09-08 14:18:00,,0833.0,5.00,0.00,30.5,29.5,00.0,39.5,32.2,13.7,0000.8,0056.49,0039.26,0036.86
2021-09-08 14:19:00,,0833.0,5.00,0.00,30.5,29.5,00.0,39.5,32.2,14.1,0000.8,0056.37,0039.25,0036.83
2021-09-08 14:20:00,,0833.0,5.01,0.00,30.5,29.5,00.0,39.6,32.2,14.2,0000.8,0055.87,0039.16,0036.79
2021-09-08 14:21:00,,0833.0,5.01,0.00,30.5,29.2,00.0,39.6,32.1,14.3,0000.7,0055.41,0039.11,0036.73
2021-09-08 14:22:00,,0833.0,4.98,0.00,30.4,27.3,00.0,39.5,31.8,14.4,0000.9,0055.38,0039.03,0036.67
2021-09-08 14:23:00,,0833.0,5.00,0.00,30.3,26.4,00.0,39.5,31.5,14.7,0000.7,0055.07,0038.99,0036.63
2021-09-08 14:24:00,,0833.0,5.01,0.00,30.2,26.7,00.0,39.5,31.5,15.2,0000.7,0054.68,0038.84,0036.58
2021-09-08 14:25:00,,0833.0,5.00,0.00,30.1,27.1,00.0,39.4,31.5,14.6,0000.9,0054.06,0038.64,0036.46
2021-09-08 14:26:00,,0833.0,5.01,0.00,30.1,27.5,00.0,39.4,31.6,15.0,0000.9,0053.67,0038.61,0036.45
2021-09-08 14:27:00,,0833.1,5.01,0.00,30.0,27.8,00.0,39.3,31.6,15.4,0001.0,0053.69,0038.71,0036.49
2021-09-08 14:28:00,,0833.0,4.98,0.00,30.0,28.1,00.0,39.3,31.6,15.0,0001.2,0053.64,0038.81,0036.56
2021-09-08 14:29:00,,0833.0,5.01,0.00,30.0,28.3,00.0,39.3,31.7,15.5,0001.3,0054.24,0038.86,0036.58
2021-09-08 14:30:00,,0833.1,5.00,0.00,30.1,28.5,00.0,39.3,31.7,16.1,0001.6,0054.27,0038.90,0036.60
2021-09-08 14:31:00,,0833.1,4.99,0.00,30.1,28.7,00.0,39.3,31.7,16.1,0001.6,0054.71,0038.91,0036.61
2021-09-08 14:32:00,,0833.1,5.02,0.00,30.1,28.8,00.0,39.3,31.7,15.8,0001.9,0054.58,0038.89,0036.61
2021-09-08 14:33:00,,0833.1,4.99,0.00,30.1,28.9,00.0,39.3,31.8,15.1,0001.9,0054.20,0038.83,0036.63
2021-09-08 14:34:00,,0833.1,5.00,0.00,30.1,29.0,00.0,39.3,31.8,14.5,0002.2,0053.43,0038.80,0036.62
2021-09-08 14:35:00,,0833.0,4.98,0.00,30.1,29.0,00.0,39.3,31.9,14.6,0001.9,0053.18,0038.79,0036.60
2021-09-08 14:36:00,,0833.1,5.00,0.00,30.2,29.1,00.0,39.3,31.9,14.3,0001.8,0053.04,0038.90,0036.67
2021-09-08 14:37:00,,0833.0,5.00,0.00,30.2,29.1,00.0,39.3,32.0,14.3,0001.8,0052.41,0038.84,0036.63
2021-09-08 14:38:00,,0833.0,5.00,0.00,30.2,29.2,00.0,39.3,32.0,14.4,0002.5,0054.05,0038.75,0036.52
2021-09-08 14:39:00,,0833.0,5.01,0.00,30.2,29.2,00.0,39.3,32.0,14.1,0002.7,0054.74,0038.66,0036.40
2021-09-08 14:40:00,,0832.9,4.99,0.00,30.2,29.2,00.0,39.3,32.0,14.5,0002.5,0054.45,0038.54,0036.30
2021-09-08 14:41:00,,0833.0,4.99,0.00,30.3,29.3,00.0,39.3,32.0,14.7,0002.2,0054.83,0038.45,0036.22
2021-09-08 14:42:00,,0833.0,5.01,0.00,30.3,29.3,00.0,39.3,32.0,14.8,0002.2,0055.66,0038.36,0036.11
2021-09-08 14:43:00,,0833.1,4.99,0.00,30.3,29.4,00.0,39.3,32.0,15.0,0002.2,0055.52,0038.21,0036.03
2021-09-08 14:44:00,,0833.1,4.99,0.00,30.3,29.4,00.0,39.4,32.0,15.2,0002.1,0055.57,0038.18,0035.95
2021-09-08 14:45:00,,0833.1,5.00,0.00,30.3,29.4,00.0,39.4,32.1,15.0,0001.8,0055.57,0038.14,0035.90
2021-09-08 14:46:00,,0833.1,5.01,0.00,30.4,29.5,00.0,39.4,32.1,15.5,0002.2,0055.88,0038.17,0035.83
2021-09-08 14:47:00,,0833.1,5.00,0.00,30.4,29.5,00.0,39.4,32.1,15.8,0002.1,0056.98,0038.16,0035.76
2021-09-08 14:48:00,,0833.0,5.00,0.00,30.4,29.6,00.0,39.4,32.2,15.6,0002.3,0057.47,0038.22,0035.75
2021-09-08 14:49:00,,0833.1,4.99,0.00,30.4,29.6,00.0,39.4,32.2,17.2,0002.0,0056.38,0038.17,0035.71
2021-09-08 14:50:00,,0833.1,5.02,0.00,30.4,29.0,00.0,39.5,32.1,17.6,0001.8,0057.61,0038.19,0035.71
2021-09-08 14:51:00,,0833.0,4.99,0.00,30.3,27.1,00.0,39.4,31.6,17.8,0001.8,0058.24,0038.15,0035.67
2021-09-08 14:52:00,,0833.1,5.00,0.00,30.2,26.5,00.0,39.4,31.4,17.8,0002.0,0058.47,0038.20,0035.68
2021-09-08 14:53:00,,0833.0,5.01,0.00,30.1,26.9,00.0,39.3,31.5,17.6,0002.1,0057.59,0038.24,0035.69
2021-09-08 14:54:00,,0833.0,4.99,0.00,30.0,27.3,00.0,39.3,31.5,17.2,0001.8,0057.86,0038.30,0035.68
2021-09-08 14:55:00,,0833.0,4.98,0.00,30.0,27.7,00.0,39.3,31.5,17.2,0001.9,0058.25,0038.33,0035.66
2021-09-08 14:56:00,,0833.1,5.01,0.00,30.0,28.0,00.0,39.2,31.6,16.8,0002.0,0059.13,0038.44,0035.67
2021-09-08 14:57:00,,0833.0,4.98,0.00,30.0,28.3,00.0,39.2,31.7,16.5,0001.8,0059.11,0038.42,0035.63
2021-09-08 14:58:00,,0833.0,5.00,0.00,30.0,28.5,00.0,39.2,31.7,16.0,0001.8,0058.91,0038.35,0035.59
2021-09-08 14:59:00,,0833.0,5.01,0.00,30.0,28.6,00.0,39.2,31.8,15.3,0001.8,0059.29,0038.23,0035.52
